QPF
0.02 0.01 0.01 0.01 0.01 0.01 0.01 0.01 0.01 0.01 0.02 0.01 0.01 0.01 0.01 0.01 0.01 0.00 0.00 0.00 0.00 0.00 0.00 0.00 0.00 0.00 0.00 0.00 0.00 0.00 0.00 0.00 0.00 0.00 0.00 0.01 0.01 0.02
0.01 0.01 0.01 0.01 0.01 0.00 0.00 0.00 0.00 0.01 0.01 0.01 0.01 0.02 0.01 0.01 0.00 0.00 0.00 0.00 0.00 0.00 0.00 0.00 0.00 0.00 0.00 0.00 0.00 0.00 0.00 0.00 0.00 0.00 0.00 0.00 0.00 0.01
0.01 0.00 0.00 0.00 0.00 0.00 0.00 0.00 0.00 0.00 0.01 0.01 0.01 0.01 0.00 0.00 0.00 0.00 0.00 0.00 0.00 0.00 0.00 0.00 0.00 0.00 0.00 0.00 0.00 0.00 0.00 0.00 0.00 0.00 0.00 0.00 0.00 0.00
0.00 0.00 0.00 0.00 0.00 0.00 0.00 0.00 0.00 0.00 0.00 0.00 0.00 0.00 0.00 0.00 0.00 0.00 0.00 0.00 0.00 0.00 0.00 0.00 0.00 0.00 0.00 0.00 0.00 0.00 0.00 0.00 0.00 0.00 0.00 0.00 0.00 0.00
0.00 0.00 0.00 0.00 0.00 0.00 0.00 0.00 0.00 0.00 0.00 0.00 0.00 0.00 0.00 0.00 0.00 0.00 0.00 0.00 0.00 0.00 0.00 0.00 0.00 0.00 0.00 0.00 0.00 0.00 0.00 0.00 0.00 0.00 0.00 0.00 0.00 0.00
0.00 0.00 0.00 0.00 0.00 0.00 0.00 0.00 0.00 0.00 0.00 0.00 0.00 0.00 0.00 0.00 0.00 0.00 0.00 0.00 0.00 0.00 0.00 0.00 0.00 0.00 0.00 0.00 0.00 0.00 0.00 0.00 0.00 0.00 0.00 0.00 0.00 0.00
0.00 0.00 0.00 0.00 0.00 0.00 0.00 0.00 0.00 0.00 0.00 0.00 0.00 0.00 0.00 0.00 0.00 0.00 0.00 0.00 0.00 0.00 0.00 0.00 0.00 0.00 0.00 0.00 0.00 0.00 0.00 0.00 0.00 0.00 0.00 0.00 0.00 0.00
0.00 0.00 0.00 0.00 0.00 0.00 0.00 0.00 0.00 0.00 0.00 0.00 0.00 0.00 0.00 0.00 0.00 0.00 0.00 0.00 0.00 0.00 0.00 0.00 0.00 0.00 0.00 0.00 0.00 0.00 0.00 0.00 0.00 0.00 0.00 0.00 0.00 0.00
0.00 0.00 0.00 0.00 0.00 0.00 0.00 0.00 0.00 0.00 0.00 0.00 0.00 0.00 0.00 0.00 0.00 0.00 0.00 0.00 0.00 0.00 0.00 0.00 0.00 0.00 0.00 0.00 0.00 0.00 0.00 0.00 0.00 0.00 0.00 0.00 0.00 0.00
0.00 0.00 0.00 0.00 0.00 0.00 0.00 0.00 0.00 0.00 0.00 0.00 0.00 0.00 0.00 0.00 0.00 0.00 0.00 0.00 0.00 0.00 0.00 0.00 0.00 0.00 0.00 0.00 0.00 0.00 0.00 0.00 0.00 0.00 0.00 0.00 0.00 0.00
0.00 0.00 0.00 0.00 0.00 0.00 0.00 0.00 0.00 0.00 0.00 0.00 0.00 0.00 0.00 0.00 0.00 0.00 0.00 0.00 0.00 0.00 0.00 0.00 0.00 0.00 0.00 0.00 0.00 0.00 0.00 0.00 0.00 0.00 0.00 0.00 0.00 0.00
0.00 0.00 0.00 0.00 0.00 0.00 0.00 0.00 0.00 0.00 0.00 0.00 0.00 0.00 0.00 0.00 0.00 0.00 0.00 0.00 0.00 0.00 0.00 0.00 0.00 0.00 0.00 0.00 0.00 0.00 0.00 0.00 0.00 0.00 0.00 0.00 0.00 0.00
0.00 0.00 0.00 0.00 0.00 0.00 0.00 0.00 0.00 0.00 0.00 0.00 0.00 0.00 0.00 0.00 0.00 0.00 0.00 0.00 0.00 0.00 0.00 0.00 0.00 0.00 0.00 0.00 0.00 0.00 0.00 0.00 0.00 0.00 0.00 0.00 0.00 0.00
0.00 0.00 0.00 0.00 0.00 0.00 0.00 0.00 0.00 0.00 0.00 0.00 0.00 0.00 0.00 0.00 0.00 0.00 0.00 0.00 0.00 0.00 0.00 0.00 0.00 0.00 0.00 0.00 0.00 0.00 0.00 0.00 0.00 0.00 0.00 0.00 0.00 0.00
0.00 0.00 0.00 0.00 0.00 0.00 0.00 0.00 0.00 0.00 0.00 0.00 0.00 0.00 0.00 0.00 0.00 0.00 0.00 0.00 0.00 0.00 0.00 0.00 0.00 0.00 0.00 0.00 0.00 0.00 0.00 0.00 0.00 0.00 0.00 0.00 0.00 0.00
0.00 0.00 0.00 0.00 0.00 0.00 0.00 0.00 0.00 0.00 0.00 0.00 0.00 0.00 0.00 0.00 0.00 0.00 0.00 0.00 0.00 0.00 0.00 0.00 0.00 0.00 0.01 0.00 0.00 0.00 0.00 0.00 0.00 0.00 0.00 0.00 0.00 0.00
0.00 0.00 0.00 0.00 0.00 0.00 0.00 0.00 0.00 0.00 0.00 0.00 0.00 0.00 0.00 0.00 0.00 0.00 0.00 0.00 0.00 0.00 0.00 0.00 0.00 0.00 0.00 0.00 0.00 0.00 0.00 0.00 0.00 0.00 0.00 0.00 0.00 0.00
0.00 0.00 0.00 0.00 0.00 0.00 0.00 0.00 0.00 0.00 0.00 0.00 0.00 0.00 0.00 0.00 0.00 0.00 0.00 0.00 0.00 0.00 0.00 0.00 0.00 0.00 0.00 0.00 0.00 0.00 0.00 0.00 0.00 0.00 0.00 0.00 0.00 0.00
0.00 0.00 0.00 0.00 0.00 0.00 0.00 0.00 0.00 0.00 0.00 0.00 0.00 0.00 0.00 0.00 0.00 0.00 0.00 0.00 0.00 0.00 0.00 0.00 0.00 0.00 0.00 0.00 0.00 0.00 0.00 0.00 0.00 0.00 0.00 0.00 0.00 0.00
0.00 0.00 0.00 0.00 0.00 0.00 0.00 0.00 0.00 0.00 0.00 0.00 0.00 0.00 0.00 0.00 0.00 0.00 0.00 0.00 0.00 0.00 0.00 0.00 0.00 0.00 0.00 0.00 0.00 0.00 0.00 0.00 0.00 0.00 0.00 0.00 0.00 0.00
0.00 0.00 0.00 0.00 0.00 0.00 0.00 0.00 0.00 0.00 0.00 0.00 0.00 0.00 0.00 0.00 0.00 0.00 0.00 0.00 0.00 0.00 0.00 0.00 0.00 0.00 0.00 0.00 0.00 0.00 0.00 0.00 0.00 0.00 0.00 0.00 0.00 0.00
0.00 0.00 0.00 0.00 0.00 0.00 0.00 0.00 0.00 0.00 0.00 0.00 0.00 0.00 0.00 0.00 0.00 0.00 0.00 0.00 0.00 0.00 0.00 0.00 0.00 0.00 0.00 0.00 0.00 0.00 0.00 0.00 0.00 0.00 0.00 0.00 0.00 0.00
0.00 0.00 0.00 0.00 0.00 0.00 0.00 0.00 0.00 0.00 0.00 0.00 0.00 0.00 0.00 0.00 0.00 0.00 0.00 0.00 0.00 0.00 0.00 0.00 0.00 0.00 0.00 0.00 0.00 0.00 0.00 0.00 0.00 0.00 0.00 0.00 0.00 0.00
MSLP
1020.70 1021.06 1021.47 1021.93 1022.42 1022.92 1023.42 1023.88 1024.28 1024.63 1024.91 1025.11 1025.24 1025.30 1025.29 1025.24 1025.17 1025.08 1025.00 1024.95 1024.93 1024.95 1025.00 1025.05 1025.10 1025.10 1025.04 1024.92 1024.72 1024.47 1024.17 1023.87 1023.57 1023.30 1023.07 1022.86 1022.66 1022.43
1021.45 1021.71 1022.00 1022.32 1022.67 1023.04 1023.42 1023.80 1024.15 1024.48 1024.76 1024.98 1025.14 1025.23 1025.25 1025.22 1025.14 1025.04 1024.95 1024.88 1024.85 1024.86 1024.92 1024.99 1025.07 1025.13 1025.13 1025.07 1024.93 1024.73 1024.48 1024.20 1023.91 1023.64 1023.39 1023.16 1022.93 1022.69
1022.15 1022.36 1022.56 1022.78 1023.02 1023.28 1023.57 1023.87 1024.18 1024.48 1024.75 1024.99 1025.17 1025.27 1025.31 1025.28 1025.19 1025.07 1024.94 1024.83 1024.76 1024.74 1024.77 1024.85 1024.94 1025.03 1025.08 1025.07 1024.99 1024.85 1024.64 1024.40 1024.14 1023.88 1023.62 1023.38 1023.13 1022.86
1022.78 1022.95 1023.10 1023.26 1023.43 1023.63 1023.85 1024.10 1024.37 1024.65 1024.91 1025.15 1025.34 1025.46 1025.49 1025.45 1025.35 1025.19 1025.02 1024.85 1024.73 1024.66 1024.65 1024.69 1024.78 1024.87 1024.94 1024.97 1024.94 1024.84 1024.68 1024.47 1024.23 1023.98 1023.72 1023.46 1023.19 1022.91
1023.30 1023.46 1023.61 1023.75 1023.89 1024.05 1024.24 1024.46 1024.70 1024.96 1025.22 1025.45 1025.64 1025.76 1025.79 1025.74 1025.61 1025.42 1025.20 1024.98 1024.80 1024.66 1024.60 1024.59 1024.64 1024.71 1024.77 1024.81 1024.80 1024.72 1024.59 1024.40 1024.17 1023.92 1023.66 1023.38 1023.10 1022.80
1023.73 1023.91 1024.06 1024.21 1024.35 1024.51 1024.68 1024.88 1025.11 1025.35 1025.59 1025.81 1025.99 1026.10 1026.13 1026.07 1025.93 1025.72 1025.47 1025.20 1024.96 1024.77 1024.64 1024.58 1024.57 1024.59 1024.62 1024.64 1024.61 1024.53 1024.39 1024.20 1023.97 1023.71 1023.43 1023.14 1022.84 1022.53
1024.10 1024.29 1024.47 1024.63 1024.79 1024.95 1025.12 1025.31 1025.51 1025.72 1025.94 1026.13 1026.29 1026.39 1026.42 1026.36 1026.21 1026.00 1025.74 1025.46 1025.19 1024.95 1024.77 1024.65 1024.57 1024.54 1024.51 1024.48 1024.41 1024.29 1024.12 1023.91 1023.65 1023.36 1023.05 1022.74 1022.43 1022.11
1024.44 1024.64 1024.84 1025.02 1025.19 1025.35 1025.51 1025.68 1025.84 1026.01 1026.18 1026.34 1026.47 1026.55 1026.57 1026.52 1026.39 1026.19 1025.94 1025.67 1025.40 1025.15 1024.93 1024.76 1024.63 1024.53 1024.44 1024.34 1024.20 1024.03 1023.80 1023.54 1023.23 1022.90 1022.57 1022.23 1021.90 1021.58
1024.77 1024.97 1025.18 1025.37 1025.54 1025.69 1025.83 1025.95 1026.06 1026.18 1026.29 1026.39 1026.47 1026.53 1026.53 1026.49 1026.38 1026.22 1026.01 1025.77 1025.52 1025.28 1025.06 1024.87 1024.69 1024.54 1024.38 1024.20 1023.99 1023.75 1023.46 1023.13 1022.77 1022.39 1022.02 1021.66 1021.31 1020.99
1025.11 1025.30 1025.50 1025.69 1025.84 1025.97 1026.06 1026.13 1026.18 1026.21 1026.25 1026.28 1026.31 1026.32 1026.31 1026.27 1026.19 1026.07 1025.91 1025.72 1025.52 1025.31 1025.11 1024.91 1024.71 1024.52 1024.31 1024.07 1023.79 1023.47 1023.11 1022.71 1022.30 1021.88 1021.47 1021.09 1020.74 1020.43
1025.45 1025.63 1025.82 1025.98 1026.12 1026.20 1026.25 1026.25 1026.22 1026.17 1026.12 1026.08 1026.04 1026.00 1025.97 1025.92 1025.85 1025.77 1025.66 1025.53 1025.38 1025.22 1025.04 1024.86 1024.66 1024.44 1024.19 1023.91 1023.57 1023.19 1022.77 1022.33 1021.87 1021.41 1020.98 1020.59 1020.25 1019.96
1025.79 1025.95 1026.12 1026.27 1026.37 1026.42 1026.40 1026.34 1026.24 1026.12 1025.99 1025.87 1025.76 1025.67 1025.60 1025.53 1025.47 1025.40 1025.33 1025.24 1025.13 1025.01 1024.88 1024.72 1024.53 1024.31 1024.04 1023.72 1023.35 1022.93 1022.47 1021.99 1021.50 1021.02 1020.58 1020.19 1019.86 1019.60
1026.11 1026.26 1026.41 1026.53 1026.60 1026.61 1026.56 1026.45 1026.29 1026.11 1025.91 1025.73 1025.56 1025.42 1025.30 1025.21 1025.13 1025.06 1024.99 1024.92 1024.84 1024.75 1024.64 1024.50 1024.32 1024.10 1023.83 1023.50 1023.11 1022.68 1022.20 1021.70 1021.20 1020.72 1020.28 1019.90 1019.59 1019.36
1026.40 1026.53 1026.66 1026.76 1026.80 1026.79 1026.71 1026.57 1026.38 1026.16 1025.93 1025.71 1025.50 1025.31 1025.15 1025.01 1024.90 1024.80 1024.72 1024.64 1024.56 1024.47 1024.36 1024.23 1024.06 1023.85 1023.58 1023.25 1022.87 1022.43 1021.95 1021.45 1020.95 1020.48 1020.05 1019.70 1019.41 1019.21
1026.65 1026.76 1026.86 1026.94 1026.96 1026.93 1026.84 1026.70 1026.51 1026.29 1026.05 1025.81 1025.58 1025.36 1025.16 1024.98 1024.82 1024.68 1024.55 1024.43 1024.32 1024.20 1024.08 1023.94 1023.77 1023.56 1023.30 1022.98 1022.60 1022.17 1021.70 1021.22 1020.73 1020.28 1019.87 1019.53 1019.27 1019.09
1026.85 1026.93 1027.00 1027.05 1027.06 1027.02 1026.94 1026.81 1026.64 1026.45 1026.23 1026.01 1025.78 1025.55 1025.32 1025.10 1024.89 1024.69 1024.49 1024.31 1024.14 1023.98 1023.82 1023.65 1023.46 1023.24 1022.99 1022.67 1022.31 1021.90 1021.45 1020.99 1020.52 1020.09 1019.70 1019.37 1019.13 1018.96
1027.00 1027.04 1027.08 1027.09 1027.09 1027.04 1026.98 1026.88 1026.75 1026.60 1026.44 1026.25 1026.04 1025.82 1025.58 1025.32 1025.06 1024.79 1024.53 1024.27 1024.03 1023.80 1023.59 1023.38 1023.16 1022.93 1022.66 1022.36 1022.01 1021.62 1021.19 1020.75 1020.31 1019.89 1019.51 1019.20 1018.96 1018.78
1027.11 1027.11 1027.10 1027.08 1027.05 1027.01 1026.96 1026.90 1026.82 1026.73 1026.62 1026.48 1026.31 1026.11 1025.86 1025.58 1025.28 1024.95 1024.62 1024.28 1023.97 1023.67 1023.39 1023.13 1022.88 1022.63 1022.35 1022.05 1021.72 1021.34 1020.94 1020.52 1020.10 1019.70 1019.33 1019.02 1018.76 1018.57
1027.19 1027.14 1027.09 1027.04 1026.99 1026.95 1026.91 1026.89 1026.86 1026.82 1026.77 1026.68 1026.55 1026.36 1026.12 1025.83 1025.49 1025.11 1024.71 1024.32 1023.93 1023.57 1023.23 1022.93 1022.64 1022.36 1022.08 1021.78 1021.46 1021.11 1020.73 1020.33 1019.93 1019.55 1019.18 1018.86 1018.59 1018.38
1027.24 1027.16 1027.07 1027.00 1026.93 1026.89 1026.88 1026.88 1026.89 1026.90 1026.89 1026.84 1026.74 1026.58 1026.34 1026.03 1025.67 1025.25 1024.81 1024.35 1023.91 1023.50 1023.12 1022.77 1022.46 1022.16 1021.87 1021.58 1021.27 1020.94 1020.59 1020.23 1019.85 1019.48 1019.12 1018.79 1018.51 1018.25
1027.27 1027.17 1027.07 1026.99 1026.92 1026.89 1026.88 1026.91 1026.95 1026.99 1027.00 1026.98 1026.90 1026.74 1026.50 1026.18 1025.80 1025.35 1024.88 1024.39 1023.91 1023.46 1023.05 1022.68 1022.35 1022.04 1021.76 1021.48 1021.19 1020.89 1020.57 1020.23 1019.88 1019.53 1019.19 1018.86 1018.55 1018.26
1027.28 1027.19 1027.10 1027.02 1026.97 1026.95 1026.96 1027.00 1027.05 1027.10 1027.13 1027.11 1027.03 1026.87 1026.62 1026.28 1025.88 1025.42 1024.92 1024.42 1023.92 1023.46 1023.03 1022.65 1022.32 1022.02 1021.74 1021.48 1021.21 1020.94 1020.65 1020.35 1020.04 1019.71 1019.38 1019.06 1018.73 1018.42
1027.25 1027.20 1027.14 1027.09 1027.06 1027.07 1027.10 1027.15 1027.20 1027.25 1027.27 1027.24 1027.14 1026.95 1026.69 1026.34 1025.92 1025.45 1024.94 1024.43 1023.94 1023.47 1023.05 1022.68 1022.35 1022.06 1021.80 1021.56 1021.33 1021.08 1020.84 1020.57 1020.29 1020.00 1019.69 1019.37 1019.05 1018.71
Thickness
5638 5638 5637 5635 5633 5631 5628 5624 5615 5602 5595 5593 5591 5591 5588 5585 5582 5578 5575 5571 5567 5562 5558 5553 5548 5544 5540 5536 5532 5529 5525 5521 5518 5515 5512 5509 5506 5504
5626 5626 5624 5623 5622 5620 5617 5613 5610 5602 5590 5585 5583 5582 5579 5576 5573 5569 5565 5562 5558 5553 5548 5543 5538 5534 5530 5526 5522 5519 5515 5511 5508 5504 5500 5497 5494 5490
5615 5614 5612 5611 5610 5608 5606 5602 5598 5593 5585 5577 5575 5573 5569 5566 5563 5560 5556 5553 5548 5544 5539 5534 5529 5525 5521 5517 5514 5510 5507 5503 5498 5494 5490 5487 5484 5481
5603 5603 5601 5601 5598 5596 5594 5590 5586 5583 5577 5569 5564 5561 5558 5556 5553 5550 5547 5543 5539 5535 5531 5526 5522 5518 5514 5510 5506 5503 5499 5495 5491 5487 5483 5480 5476 5473
5592 5591 5589 5588 5585 5583 5581 5578 5574 5571 5566 5559 5553 5549 5547 5545 5542 5539 5537 5533 5531 5527 5523 5519 5516 5512 5508 5504 5500 5497 5493 5489 5485 5481 5477 5474 5470 5467
5580 5579 5578 5577 5574 5572 5569 5565 5562 5557 5552 5547 5542 5538 5535 5533 5530 5526 5524 5522 5521 5519 5515 5513 5510 5507 5503 5499 5495 5491 5488 5484 5481 5477 5473 5470 5466 5463
5569 5568 5567 5566 5564 5562 5558 5553 5550 5545 5540 5535 5530 5526 5523 5520 5517 5514 5512 5511 5511 5510 5508 5506 5504 5502 5499 5495 5491 5488 5484 5481 5477 5474 5470 5467 5464 5460
5557 5556 5555 5554 5552 5550 5548 5544 5541 5536 5529 5524 5519 5516 5513 5511 5508 5507 5503 5501 5500 5503 5500 5499 5498 5496 5494 5492 5488 5485 5482 5478 5475 5472 5469 5465 5462 5458
5546 5545 5544 5542 5541 5539 5536 5534 5530 5527 5523 5517 5512 5509 5506 5505 5503 5500 5498 5495 5494 5497 5495 5493 5493 5491 5491 5489 5486 5483 5480 5477 5474 5471 5468 5464 5461 5458
5536 5534 5532 5530 5529 5527 5525 5521 5518 5516 5513 5509 5507 5504 5503 5501 5498 5495 5493 5491 5492 5492 5491 5487 5487 5486 5487 5487 5485 5482 5479 5477 5474 5471 5468 5465 5461 5458
5524 5523 5522 5519 5518 5517 5514 5510 5507 5505 5505 5503 5502 5500 5499 5497 5495 5491 5489 5486 5484 5485 5486 5484 5482 5481 5482 5483 5483 5481 5479 5477 5475 5472 5469 5466 5462 5459
5513 5512 5511 5510 5508 5507 5503 5500 5498 5496 5496 5497 5496 5496 5495 5494 5492 5489 5486 5482 5480 5479 5483 5481 5479 5477 5476 5479 5481 5481 5479 5478 5475 5473 5471 5468 5464 5460
5504 5502 5502 5501 5500 5499 5497 5494 5492 5491 5490 5489 5489 5489 5489 5489 5488 5487 5485 5482 5479 5478 5481 5479 5477 5475 5473 5473 5477 5480 5479 5477 5476 5475 5473 5470 5467 5463
5496 5495 5495 5495 5494 5493 5491 5490 5488 5487 5485 5484 5483 5482 5483 5483 5485 5485 5485 5483 5482 5481 5482 5480 5477 5475 5473 5471 5472 5477 5479 5478 5476 5475 5474 5473 5470 5467
5490 5490 5490 5490 5489 5488 5488 5486 5484 5481 5479 5477 5476 5477 5478 5480 5481 5482 5483 5483 5483 5483 5483 5482 5480 5478 5474 5472 5472 5473 5474 5477 5478 5476 5475 5474 5472 5469
5485 5486 5486 5485 5485 5484 5483 5481 5479 5477 5475 5473 5473 5474 5476 5477 5478 5478 5477 5477 5477 5480 5483 5483 5482 5480 5477 5477 5474 5474 5475 5475 5478 5477 5476 5475 5474 5471
5480 5479 5479 5478 5477 5476 5475 5474 5473 5473 5471 5470 5470 5471 5472 5472 5473 5474 5473 5473 5473 5474 5477 5482 5483 5482 5481 5479 5478 5478 5477 5478 5479 5478 5476 5474 5475 5474
5475 5472 5471 5470 5469 5468 5468 5468 5468 5467 5467 5467 5467 5467 5467 5468 5469 5471 5471 5471 5471 5472 5474 5477 5479 5480 5480 5483 5483 5481 5480 5480 5481 5479 5477 5474 5474 5476
5471 5468 5467 5466 5465 5465 5464 5464 5464 5464 5464 5464 5464 5464 5465 5466 5466 5467 5468 5469 5471 5473 5475 5477 5477 5477 5475 5475 5483 5486 5483 5483 5481 5480 5479 5476 5474 5476
5468 5466 5464 5464 5463 5462 5462 5461 5461 5461 5461 5460 5460 5461 5461 5462 5464 5465 5466 5467 5469 5472 5475 5478 5479 5478 5476 5477 5480 5485 5488 5485 5483 5481 5480 5478 5477 5477
5466 5465 5463 5462 5461 5460 5460 5459 5458 5457 5457 5457 5457 5458 5459 5460 5462 5464 5466 5469 5471 5472 5474 5478 5482 5485 5484 5482 5481 5484 5488 5490 5488 5484 5481 5478 5475 5474
5465 5464 5463 5462 5460 5459 5458 5457 5456 5455 5455 5455 5455 5456 5458 5459 5461 5463 5466 5469 5471 5473 5476 5480 5484 5486 5485 5483 5482 5482 5484 5489 5490 5488 5485 5481 5475 5472
5466 5464 5463 5461 5460 5459 5457 5456 5455 5454 5454 5454 5455 5456 5458 5460 5462 5465 5468 5471 5473 5476 5478 5480 5483 5484 5483 5483 5482 5481 5484 5484 5483 5483 5484 5484 5481 5478